Estación de Los Colihues

Ultimos registro cada 15 minutos 35
Estación Fecha / Hora Temperatura Humedad Lluvia Velocidad Dirección Radiación Presion
35 Los Colihues 03-09-2026 08:30 7,6 98,7 0 0 298 231,9 1016
34 Los Colihues 03-09-2026 08:15 6,5 100 0 0 298 185,6 1016
33 Los Colihues 03-09-2026 08:00 5,2 100 0 0 298 120,6 1016,2
32 Los Colihues 03-09-2026 07:45 4,6 100 0 0 298 71,9 1016,2
31 Los Colihues 03-09-2026 07:30 3,6 100 0 0 298 34,4 1016,3
30 Los Colihues 03-09-2026 07:15 3,3 100 0 0 298 9,4 1016,6
29 Los Colihues 03-09-2026 07:00 3,7 100 0 0 298 0,6 1016,7
28 Los Colihues 03-09-2026 06:45 4,3 100 0 0 298 0,6 1016,4
27 Los Colihues 03-09-2026 06:30 4,9 100 0 0 298 0,6 1016,2
26 Los Colihues 03-09-2026 06:15 5,1 100 0 0 298 0,6 1016,2
25 Los Colihues 03-09-2026 06:00 5,3 100 0 0 298 0,6 1016,2
24 Los Colihues 03-09-2026 05:45 5,4 100 0 0 298 0,6 1016
23 Los Colihues 03-09-2026 05:30 5,7 100 0 0 298 0,6 1015,9
22 Los Colihues 03-09-2026 05:15 5,8 100 0 0 298 0,6 1016
21 Los Colihues 03-09-2026 05:00 5,8 100 0 0 298 0,6 1015,8
20 Los Colihues 03-09-2026 04:45 5,8 100 0 0 298 0,6 1015,7
19 Los Colihues 03-09-2026 04:30 5,7 100 0 0 298 0,6 1015,7
18 Los Colihues 03-09-2026 04:15 5,5 100 0 0 298 0,6 1015,6
17 Los Colihues 03-09-2026 04:00 4,8 100 0 0 298 0,6 1015,6
16 Los Colihues 03-09-2026 03:45 4,2 100 0 0 298 0,6 1015,5
15 Los Colihues 03-09-2026 03:30 4,1 100 0 0 298 0,6 1015,4
14 Los Colihues 03-09-2026 03:15 4,1 99,7 0 0 298 0,6 1015,5
13 Los Colihues 03-09-2026 03:00 4,1 99,7 0 0 298 0,6 1015,6
12 Los Colihues 03-09-2026 02:45 4,7 99,7 0 0 298 0,6 1015,5
11 Los Colihues 03-09-2026 02:30 5 99,8 0 0 298 0,6 1015,6
10 Los Colihues 03-09-2026 02:15 5,3 99,2 0 0 298 0,6 1015,5
9 Los Colihues 03-09-2026 02:00 5,9 99,1 0 0 298 0,6 1015,6
8 Los Colihues 03-09-2026 01:45 6,4 99 0 0 298 0,6 1015,6
7 Los Colihues 03-09-2026 01:30 6,7 99,1 0 0 298 0,6 1015,6
6 Los Colihues 03-09-2026 01:15 6,7 99,6 0 0 298 0,6 1015,5
5 Los Colihues 03-09-2026 01:00 6,7 99,5 0 0 298 0,6 1015,5
4 Los Colihues 03-09-2026 00:45 6,5 99,6 0 0 298 0,6 1015,4
3 Los Colihues 03-09-2026 00:30 6,4 99,6 0 0 298 0,6 1015,3
2 Los Colihues 03-09-2026 00:15 6,2 99,7 0 0 298 0,6 1015,4
1 Los Colihues 03-09-2026 00:00 5,6 99,8 0 0 298 0,6 1015,4